Terminal Aerodrome Forecast
Issued by NWS

Home | Current Version | Previous Version | Text Only | Print | Product List | Glossary On
Versions: 1 2 3 4 5 6 7 8 9 10 11 12 13 14 15
000
FTUS45 KTFX 260527
TAFCTB
TAF
KCTB 260527Z 2606/2706 01010KT P6SM SCT030 BKN080
      TEMPO 2606/2607 BKN025
     FM260700 03008KT P6SM VCSH SCT015 OVC025
      TEMPO 2610/2614 BKN015
     FM261700 14006KT P6SM SCT050 BKN120
     FM270200 16008KT P6SM SCT150=

USA.gov is the U.S. government's official web portal to all federal, state and local government web resources and services.